Flag for U.S.A. Weather past 2 weeks in Flint, Michigan, U.S.A.

Now
24 °F

Overcast.


Feels Like: 11 °F
Forecast: 21 / 30 °F
Wind: 15 mph from Northwest

Location: Bishop International Airport

Current Time: Mar 27, 2015 at 4:21:35 AM

Latest Report: Mar 27, 2015 at 3:53 AM


Visibility: 10 mi

Pressure: 30.01 "Hg

Humidity: 60%

Dew point: 12 °F

Location of FlintLocation

Historic Weather in Flint — Graph

°F

Flint temperature yesterday

Maximum temperature yesterday: 43 °F (at 2:53 PM)
Minimum temperature yesterday: 31 °F (at 11:53 PM)
Average temperature yesterday: 38 °F

Past Weeks' High & Low Weather Summary

 TemperatureHumidityPressure
High66 °F (Mar 16, 5:53 PM)93% (Mar 14, 2:53 AM)30.63 "Hg (Mar 14, 2:53 AM)
Low16 °F (Mar 24, 7:53 AM)23% (Mar 24, 3:53 PM)29.70 "Hg (Mar 16, 7:53 PM)
Average38 °F55%30.16 "Hg
* Reported Mar 12 3:53 AM — Mar 27 3:00 AM, Flint, Weather by CustomWeather, © 2015

Note: Actual official high and low records may vary slightly from our data, if they occured in-between our weather recording intervals... More about our weather records

Advertising

Flint weather history for previous 24 hours

 ConditionsComfort  
Time TempWeatherWind HumidityBarometerVisibility
3:00 AM
Fri, Mar 27
25 °FOvercast.18 mph63%29.97 "Hg10 mi
1:53 AM27 °FMostly cloudy.16 mph61%30.00 "Hg10 mi
12:53 AM30 °FOvercast.10 mph61%29.98 "Hg10 mi
11:53 PM
Thu, Mar 26
31 °FMostly cloudy.15 mph69%29.97 "Hg10 mi
10:53 PM33 °FMostly cloudy.13 mph66%29.96 "Hg10 mi
9:53 PM35 °FOvercast.15 mph61%29.95 "Hg10 mi
8:53 PM36 °FOvercast.13 mph64%29.94 "Hg10 mi
7:53 PM37 °FOvercast.14 mph62%29.92 "Hg10 mi
6:53 PM39 °FOvercast.15 mph55%29.90 "Hg10 mi
5:53 PM40 °FMore clouds than sun.17 mph53%29.88 "Hg10 mi
4:53 PM41 °FOvercast.13 mph53%29.86 "Hg10 mi
3:53 PM42 °FOvercast.16 mph53%29.85 "Hg10 mi
2:53 PM43 °FOvercast.15 mph51%29.86 "Hg10 mi
1:53 PM42 °FOvercast.12 mph55%29.87 "Hg10 mi
12:53 PM41 °FOvercast.14 mph58%29.87 "Hg10 mi
11:53 AM41 °FOvercast.14 mph58%29.88 "Hg10 mi
10:53 AM41 °FOvercast.9 mph62%29.89 "Hg10 mi
9:53 AM39 °FOvercast.13 mph67%29.90 "Hg10 mi
8:53 AM38 °FOvercast.6 mph76%29.90 "Hg8 mi
7:53 AM37 °FMostly cloudy.5 mph79%29.91 "Hg7 mi
6:53 AM37 °FMostly cloudy.5 mph82%29.90 "Hg8 mi
5:53 AM37 °FOvercast.6 mph82%29.90 "Hg8 mi
4:53 AM38 °FOvercast.7 mph79%29.91 "Hg8 mi
Weather by CustomWeather, © 2015

See weather overviewHow to use our weather pages